Deming, NM

10:18 PM MDT on October 19, 2017 (GMT -0600)
Deming Municipal

Weather History for KDMN - April, 2013

Change the Weather History Date:

Monday, April 1, 2013

  Actual Average Record
Temperature  
Mean Temperature 61 °F 55 °F  
Max Temperature 82 °F 72 °F 89 °F (2011)
Min Temperature 40 °F 38 °F 21 °F (1988)
Degree Days  
Heating Degree Days 5    
Growing Degree Days 10 (Base 50)    
Moisture  
Dew Point 18 °F    
Average Humidity 24    
Maximum Humidity 40    
Minimum Humidity 7    
Precipitation  
Precipitation 0.00 in 0.01 in 0.01 in (1948)
Month to date precipitation 0.00 0.01  
Year to date precipitation 0.48 1.63  
Sea Level Pressure  
Sea Level Pressure 29.84 in    
Wind  
Wind Speed 10 mph (West)    
Max Wind Speed 22 mph    
Max Gust Speed 35 mph    
Visibility 10 miles    
Events      
T = Trace of Precipitation, MM = Missing Value Source: NWS Daily Summary

Daily Weather History Graph

Daily Weather History Graph

Search for Another Location

Airport or City:

Trip Planner

Search our weather history database for the weather conditions in past years. The results will help you decide how hot, cold, wet, or windy it might be!

Date:

Astronomy

Apr. 01, 2013 Rise Set
Actual Time 6:58 AM MDT 7:30 PM MDT
Civil Twilight 6:34 AM MDT 7:55 PM MDT
Nautical Twilight 6:05 AM MDT 8:24 PM MDT
Astronomical Twilight 5:35 AM MDT 8:54 PM MDT
Moon 12:27 AM MDT (4/1) 11:03 AM MDT (4/1)
Length of Visible Light 13h 21m
Length of Day
12h 32m
Waning Gibbous, 66% of the Moon is Illuminated
Apr 1
Waning Gibbous
Apr 2
Last Quarter
Apr 10
New
Apr 18
First Quarter
Apr 25
Full

Hourly Weather History & Observations

Time (MDT) Temp. Windchill Dew Point Humidity Pressure Visibility Wind Dir Wind Speed Gust Speed Precip Events Conditions
12:53 AM 53.1 °F - 19.9 °F 27% 29.85 in 10.0 mi West 8.1 mph - N/A   Clear
1:53 AM 53.1 °F - 19.9 °F 27% 29.85 in 10.0 mi West 12.7 mph - N/A   Clear
2:53 AM 53.1 °F - 21.0 °F 29% 29.85 in 10.0 mi West 10.4 mph - N/A   Clear
3:53 AM 50.0 °F - 21.9 °F 33% 29.86 in 10.0 mi WNW 6.9 mph - N/A   Clear
4:53 AM 46.9 °F - 19.9 °F 34% 29.87 in 10.0 mi SSW 6.9 mph - N/A   Clear
5:53 AM 46.0 °F 42.5 °F 21.0 °F 37% 29.88 in 10.0 mi West 6.9 mph - N/A   Clear
6:53 AM 39.9 °F 36.7 °F 18.0 °F 41% 29.91 in 10.0 mi South 4.6 mph - N/A   Clear
7:53 AM 46.9 °F - 19.9 °F 34% 29.93 in 10.0 mi WSW 3.5 mph - N/A   Clear
8:53 AM 55.0 °F - 23.0 °F 29% 29.93 in 10.0 mi South 6.9 mph - N/A   Clear
9:53 AM 64.9 °F - 24.1 °F 21% 29.92 in 10.0 mi SW 5.8 mph - N/A   Clear
10:53 AM 71.1 °F - 23.0 °F 16% 29.92 in 10.0 mi SW 8.1 mph - N/A   Clear
11:53 AM 73.9 °F - 19.9 °F 13% 29.90 in 10.0 mi West 10.4 mph 18.4 mph N/A   Clear
12:53 PM 77.0 °F - 17.1 °F 10% 29.88 in 10.0 mi West 15.0 mph 27.6 mph N/A   Clear
1:53 PM 78.1 °F - 17.1 °F 10% 29.83 in 10.0 mi West 13.8 mph 25.3 mph N/A   Clear
2:53 PM 79.0 °F - 15.1 °F 9% 29.80 in 10.0 mi WSW 15.0 mph 25.3 mph N/A   Clear
3:34 PM 80.6 °F - 14.0 °F 8% 29.95 in 10.0 mi WNW 10.4 mph 18.4 mph N/A   Clear
3:53 PM 81.0 °F - 10.0 °F 7% 29.76 in 10.0 mi West 12.7 mph 25.3 mph N/A   Clear
4:53 PM 80.1 °F - 12.9 °F 8% 29.75 in 9.0 mi West 18.4 mph 34.5 mph N/A   Clear
5:53 PM 79.0 °F - 16.0 °F 9% 29.74 in 10.0 mi West 18.4 mph 24.2 mph N/A   Clear
6:53 PM 75.9 °F - 14.0 °F 10% 29.77 in 10.0 mi West 17.3 mph 21.9 mph N/A   Clear
7:53 PM 71.1 °F - 12.9 °F 11% 29.77 in 10.0 mi WNW 6.9 mph - N/A   Clear
8:53 PM 69.1 °F - 14.0 °F 12% 29.77 in 10.0 mi WNW 11.5 mph - N/A   Clear
9:53 PM 64.9 °F - 16.0 °F 15% 29.77 in 10.0 mi West 10.4 mph - N/A   Clear
10:53 PM 62.1 °F - 19.0 °F 19% 29.77 in 10.0 mi WNW 10.4 mph - N/A   Clear
11:53 PM 55.9 °F - 17.1 °F 22% 29.78 in 10.0 mi SSE 5.8 mph - N/A   Clear